Regional Weather Roundup
Issued by NWS Newport/Morehead, NC

Current Version | Previous Version | Graphics & Text | Print | Product List | Glossary Off
Versions: 1 2 3 4 5 6 7 8 9 10 11 12 13 14 15 16 17 18 19 20 21 22 23 24 25 26 27 28 29 30 31 32 33 34 35 36 37 38 39 40 41 42 43 44 45 46 47 48 49 50

000
ASUS42 KMHX 241225
RWRMHX
WEATHER ROUNDUP FOR EASTERN NORTH CAROLINA
NATIONAL WEATHER SERVICE NEWPORT/MOREHEAD CITY NC
700 AM EST FRI FEB 24 2017

NOTE: "FAIR" INDICATES FEW OR NO CLOUDS BELOW 12,000 FEET
WITH NO SIGNIFICANT WEATHER AND/OR OBSTRUCTIONS TO VISIBILITY

NCZ015>017-031-032-045>047-102-103-241300-
NORTH COAST

CITY           SKY/WX    TMP DP  RH WIND       PRES   REMARKS
EDENTON        PTCLDY    53  51  94 CALM      29.95S
ELIZABETH CITY CLEAR     55  54  96 SE5       29.95R
KITTY HAWK     NOT AVBL
MANTEO         CLOUDY    60  60 100 E5        29.95S

$$

NCZ045>047-081-094-103-104-241300-
CENTRAL COAST

CITY           SKY/WX    TMP DP  RH WIND       PRES   REMARKS
FRISCO         PTCLDY    62  58  86 N5        29.93S

$$

NCZ095-097-098-100-101-241300-
SOUTHERN COAST

CITY           SKY/WX    TMP DP  RH WIND       PRES   REMARKS
BEAUFORT       CLEAR     59  58  96 NE6       29.90S
CEDAR ISLAND   NOT AVBL
JACKSONVILLE   CLOUDY    58  58 100 N5        29.90F
PINEY ISLAND   PTSUNNY  N/A N/A N/A NE5       29.91
WILMINGTON     CLOUDY    54  54 100 N3        29.90S


$$

NCZ011>013-027>030-043-044-078>080-089-090>093-098-241300-
COASTAL PLAIN

CITY           SKY/WX    TMP DP  RH WIND       PRES   REMARKS
AHOSKIE          N/A     46  46  97 CALM      29.95S
CLINTON        CLEAR     52  52 100 CALM      29.92F FOG
ELIZABETHTOWN  PTCLDY    52  52 100 CALM      29.91S FOG
GOLDSBORO      CLEAR     52  52 100 CALM      29.91S FOG
GREENVILLE       N/A     48  48 100 CALM      29.95S FOG
HAVELOCK       PTCLDY    56  54  93 NE5       29.92S
KENANSVILLE    FOG       48  48 100 CALM      29.93R VSB<1/4
KINSTON        FOG       50  50 100 CALM      29.94S VSB 3/4
NEW BERN       CLEAR     51  51 100 CALM      29.93R
RICHLANDS      MOCLDY    55  55 100 N3        29.92S
ROCKY MOUNT    FOG       47  47 100 CALM      29.93S VSB 1/4
WASHINGTON       N/A     54  53  99 CALM      29.94S
WHITEVILLE     CLEAR     53  52  97 CALM      29.90S FOG

$$

AMZ130-135-150-152-154-156-158-170-250-252-270-ANZ085-086-088-633-658-670-241300-
MARINE OBSERVATIONS

STATION/POSITION TIME  TEMP    WIND        PRES    WAVE   SWELL
                       AIR SEA DIR/SP/G            HT/PER HT/PER
                 (UTC) (F)     (DEG/KT/KT) (MB)    (FT/S) (FT/S)
CHESAPEAKE LIGHT NOT AVBL
64 E VA BEACH    1150   57 54  110/  6/  8 1014.0    4/11   5/11
DUCK             1200   60 49  170/ 13/ 16 1013.5
2 E DUCK         1200      50                N/A     4/13   2/13
OREGON INLET     1200   61 56   40/  6/  7 1013.6
13E OREGON INLT  NOT AVBL
HATTERAS CG      1200   62 62   40/  5/  7 1013.1
DIAMOND BUOY     1150   70 73  120/ 16/ 17 1013.0    7/ 8   5/ 8
CAPE LOOKOUT     1200   61      40/  7/  7 1012.3
BEAUFORT LAB     1200   60 61   30/  5/  7 1011.6
30 SE NEW RVR IN 1208   64      40/ 12/ 17 1012.2
30 SE NEW RVR IN 1143      70                N/A     8/12   3/12
27 SE WRIGHTSVLE 1208   66 66   60/ 10/ 14 1011.1
5 SE WRIGHTSVLE  1208   59 58   30/  6/ 12 1012.1
225 S CAPE HAT   1150   69 70   70/ 25/ 31 1007.1   12/10   8/10
41 SE CHARLESTON 1150   69 70   30/  8/ 10 1010.1   10/11  10/11

$$



USA.gov is the U.S. government's official web portal to all federal, state and local government web resources and services.